EN

Hourly Weather Dziekonie

Today, 20 October, Tuesday

Time Temperature Precipitation Wind Pressure Humidity
00:00 +3°C° 0 mm 4 mps 752 mmHg 89%
01:00 +3°C° 0 mm 4 mps 753 mmHg 91%
02:00 +1°C° 0 mm 4 mps 753 mmHg 93%
03:00 +2°C° 0 mm 3 mps 753 mmHg 93%
04:00 +2°C° 0 mm 3 mps 753 mmHg 94%
05:00 +2°C° 0 mm 3 mps 753 mmHg 94%
06:00 +2°C° 0 mm 3 mps 753 mmHg 94%
07:00 +2°C° 0 mm 3 mps 754 mmHg 93%
08:00 +2°C° 0 mm 3 mps 754 mmHg 92%
09:00 +3°C° 0 mm 3 mps 754 mmHg 88%
10:00 +5°C° 0 mm 3 mps 755 mmHg 83%
11:00 +7°C° 0 mm 3 mps 755 mmHg 78%
12:00 +8°C° 0 mm 3 mps 755 mmHg 75%
13:00 +8°C° 0 mm 3 mps 755 mmHg 71%
14:00 +9°C° 0 mm 2 mps 755 mmHg 68%
15:00 +9°C° 0 mm 2 mps 754 mmHg 70%
16:00 +8°C° 0 mm 2 mps 754 mmHg 72%
17:00 +8°C° 0 mm 2 mps 753 mmHg 75%
18:00 +7°C° 0 mm 3 mps 753 mmHg 77%
19:00 +7°C° 0 mm 3 mps 752 mmHg 79%
20:00 +7°C° 0 mm 3 mps 752 mmHg 81%
21:00 +6°C° 0 mm 4 mps 752 mmHg 80%
22:00 +6°C° 0 mm 4 mps 752 mmHg 79%
23:00 +6°C° 0 mm 4 mps 751 mmHg 79%

Tomorrow, 21 October, Wednesday

Time Temperature Precipitation Wind Pressure Humidity
00:00 +6°C° 0 mm 4 mps 751 mmHg 80%
01:00 +6°C° 0 mm 5 mps 750 mmHg 81%
02:00 +6°C° 0 mm 5 mps 750 mmHg 82%
03:00 +6°C° 0 mm 5 mps 749 mmHg 82%
04:00 +6°C° 0 mm 5 mps 748 mmHg 81%
05:00 +6°C° 0 mm 5 mps 748 mmHg 81%
06:00 +7°C° 0.4 mm 5 mps 748 mmHg 83%
07:00 +7°C° 0.4 mm 5 mps 748 mmHg 84%
08:00 +7°C° 0.4 mm 5 mps 748 mmHg 86%
09:00 +7°C° 0.2 mm 5 mps 748 mmHg 85%
10:00 +8°C° 0.2 mm 5 mps 748 mmHg 84%
11:00 +8°C° 0.2 mm 5 mps 748 mmHg 83%
12:00 +10°C° 0 mm 4 mps 748 mmHg 80%
13:00 +10°C° 0 mm 4 mps 748 mmHg 78%
14:00 +11°C° 0 mm 3 mps 748 mmHg 76%
15:00 +11°C° 0 mm 3 mps 748 mmHg 78%
16:00 +10°C° 0 mm 3 mps 748 mmHg 80%
17:00 +10°C° 0 mm 3 mps 748 mmHg 81%
18:00 +10°C° 0 mm 3 mps 748 mmHg 81%
19:00 +10°C° 0 mm 3 mps 748 mmHg 80%
20:00 +10°C° 0 mm 3 mps 748 mmHg 79%
21:00 +10°C° 0 mm 3 mps 748 mmHg 77%
22:00 +10°C° 0 mm 4 mps 748 mmHg 76%
23:00 +10°C° 0 mm 4 mps 747 mmHg 74%

Day after tomorrow, 22 October, Thursday

Time Temperature Precipitation Wind Pressure Humidity
00:00 +10°C° 0 mm 4 mps 747 mmHg 75%
01:00 +10°C° 0 mm 4 mps 747 mmHg 76%
02:00 +9°C° 0 mm 5 mps 747 mmHg 77%
03:00 +8°C° 0 mm 5 mps 747 mmHg 80%
04:00 +8°C° 0 mm 5 mps 747 mmHg 82%
05:00 +8°C° 0 mm 5 mps 747 mmHg 84%
06:00 +8°C° 0 mm 5 mps 747 mmHg 83%
07:00 +8°C° 0 mm 5 mps 747 mmHg 83%
08:00 +8°C° 0 mm 5 mps 747 mmHg 82%
09:00 +9°C° 0 mm 5 mps 747 mmHg 78%
10:00 +12°C° 0 mm 5 mps 747 mmHg 74%
11:00 +13°C° 0 mm 5 mps 747 mmHg 70%
12:00 +14°C° 0 mm 5 mps 747 mmHg 68%
13:00 +15°C° 0 mm 5 mps 747 mmHg 67%
14:00 +16°C° 0 mm 5 mps 747 mmHg 65%
15:00 +15°C° 0 mm 5 mps 747 mmHg 69%
16:00 +15°C° 0 mm 4 mps 747 mmHg 73%
17:00 +14°C° 0 mm 4 mps 747 mmHg 77%
18:00 +13°C° 0 mm 4 mps 747 mmHg 78%
19:00 +13°C° 0 mm 4 mps 747 mmHg 80%
20:00 +12°C° 0 mm 4 mps 746 mmHg 82%
21:00 +12°C° 0 mm 4 mps 746 mmHg 82%
22:00 +12°C° 0 mm 4 mps 746 mmHg 83%
23:00 +12°C° 0 mm 4 mps 746 mmHg 84%

23 October, Friday

Time Temperature Precipitation Wind Pressure Humidity
00:00 +11°C° 0 mm 4 mps 746 mmHg 85%
01:00 +11°C° 0 mm 4 mps 745 mmHg 86%
02:00 +11°C° 0 mm 4 mps 745 mmHg 87%
03:00 +11°C° 0 mm 4 mps 745 mmHg 86%
04:00 +11°C° 0 mm 4 mps 745 mmHg 85%
05:00 +11°C° 0 mm 4 mps 744 mmHg 85%
06:00 +11°C° 0 mm 4 mps 744 mmHg 84%
07:00 +11°C° 0 mm 4 mps 744 mmHg 84%
08:00 +10°C° 0 mm 5 mps 743 mmHg 83%
09:00 +11°C° 0.3 mm 4 mps 743 mmHg 84%
10:00 +11°C° 0.3 mm 4 mps 744 mmHg 85%
11:00 +12°C° 0.3 mm 4 mps 744 mmHg 86%
12:00 +12°C° 0.5 mm 5 mps 743 mmHg 87%
13:00 +12°C° 0.5 mm 5 mps 743 mmHg 88%
14:00 +11°C° 0.5 mm 6 mps 743 mmHg 89%
15:00 +11°C° 0.1 mm 6 mps 743 mmHg 88%
16:00 +11°C° 0.1 mm 6 mps 743 mmHg 87%
17:00 +13°C° 0.1 mm 6 mps 743 mmHg 86%
18:00 +12°C° 0.1 mm 5 mps 743 mmHg 86%
19:00 +12°C° 0.1 mm 5 mps 743 mmHg 87%
20:00 +12°C° 0.1 mm 5 mps 744 mmHg 87%
21:00 +10°C° 0 mm 5 mps 744 mmHg 87%
22:00 +10°C° 0 mm 4 mps 744 mmHg 86%
23:00 +10°C° 0 mm 4 mps 744 mmHg 85%

24 October, Saturday

Time Temperature Precipitation Wind Pressure Humidity
00:00 +8°C° 0 mm 4 mps 744 mmHg 86%
01:00 +8°C° 0 mm 4 mps 744 mmHg 87%
02:00 +8°C° 0 mm 4 mps 745 mmHg 88%
03:00 +7°C° 0 mm 4 mps 745 mmHg 89%
04:00 +7°C° 0 mm 4 mps 744 mmHg 90%
05:00 +6°C° 0 mm 4 mps 744 mmHg 91%
06:00 +6°C° 0 mm 4 mps 744 mmHg 90%
07:00 +6°C° 0 mm 4 mps 744 mmHg 89%
08:00 +6°C° 0 mm 4 mps 744 mmHg 88%
09:00 +7°C° 0 mm 5 mps 744 mmHg 83%
10:00 +8°C° 0 mm 6 mps 744 mmHg 77%
11:00 +10°C° 0 mm 7 mps 744 mmHg 71%
12:00 +9°C° 0.8 mm 7 mps 744 mmHg 77%
13:00 +8°C° 0.8 mm 7 mps 743 mmHg 83%
14:00 +8°C° 0.8 mm 7 mps 743 mmHg 88%
15:00 +8°C° 0.6 mm 7 mps 743 mmHg 85%
16:00 +8°C° 0.6 mm 6 mps 743 mmHg 82%
17:00 +8°C° 0.6 mm 6 mps 743 mmHg 79%
18:00 +7°C° 0 mm 6 mps 744 mmHg 80%
19:00 +7°C° 0 mm 6 mps 744 mmHg 80%
20:00 +5°C° 0 mm 6 mps 745 mmHg 81%
21:00 +5°C° 0 mm 6 mps 745 mmHg 82%
22:00 +5°C° 0 mm 6 mps 746 mmHg 82%
23:00 +5°C° 0 mm 6 mps 746 mmHg 83%

25 October, Sunday

Time Temperature Precipitation Wind Pressure Humidity
00:00 +5°C° 0 mm 6 mps 747 mmHg 84%
01:00 +4°C° 0 mm 6 mps 747 mmHg 85%
02:00 +4°C° 0 mm 6 mps 747 mmHg 86%
03:00 +4°C° 0 mm 6 mps 748 mmHg 87%
04:00 +5°C° 0 mm 5 mps 748 mmHg 88%
05:00 +5°C° 0 mm 5 mps 748 mmHg 88%
06:00 +3°C° 0 mm 5 mps 749 mmHg 90%
07:00 +3°C° 0 mm 5 mps 749 mmHg 91%
08:00 +3°C° 0 mm 5 mps 749 mmHg 93%
09:00 +6°C° 0 mm 5 mps 750 mmHg 88%
10:00 +7°C° 0 mm 5 mps 750 mmHg 82%
11:00 +8°C° 0 mm 5 mps 750 mmHg 77%
12:00 +9°C° 0 mm 5 mps 751 mmHg 75%
13:00 +9°C° 0 mm 5 mps 751 mmHg 72%
14:00 +10°C° 0 mm 4 mps 751 mmHg 70%
15:00 +10°C° 0 mm 4 mps 751 mmHg 72%
16:00 +10°C° 0 mm 3 mps 751 mmHg 74%
17:00 +9°C° 0 mm 2 mps 751 mmHg 75%
18:00 +9°C° 0 mm 2 mps 751 mmHg 78%
19:00 +8°C° 0 mm 2 mps 751 mmHg 81%
20:00 +8°C° 0 mm 2 mps 752 mmHg 84%
21:00 +7°C° 0 mm 2 mps 752 mmHg 86%
22:00 +7°C° 0 mm 2 mps 752 mmHg 88%
23:00 +6°C° 0 mm 2 mps 752 mmHg 90%

26 October, Monday

Time Temperature Precipitation Wind Pressure Humidity
00:00 +6°C° 0 mm 2 mps 752 mmHg 90%
01:00 +6°C° 0 mm 2 mps 752 mmHg 91%
02:00 +6°C° 0 mm 2 mps 752 mmHg 91%
03:00 +5°C° 0 mm 2 mps 752 mmHg 91%
04:00 +5°C° 0 mm 2 mps 752 mmHg 91%
05:00 +5°C° 0 mm 2 mps 752 mmHg 91%
06:00 +5°C° 0 mm 2 mps 752 mmHg 91%
07:00 +5°C° 0 mm 2 mps 752 mmHg 90%
08:00 +5°C° 0 mm 2 mps 752 mmHg 90%
09:00 +6°C° 0 mm 2 mps 752 mmHg 83%
10:00 +8°C° 0 mm 2 mps 752 mmHg 77%
11:00 +9°C° 0 mm 2 mps 752 mmHg 70%
12:00 +10°C° 0 mm 3 mps 752 mmHg 67%
13:00 +11°C° 0 mm 3 mps 751 mmHg 63%
14:00 +12°C° 0 mm 3 mps 751 mmHg 59%
15:00 +11°C° 0 mm 3 mps 751 mmHg 64%
16:00 +10°C° 0 mm 2 mps 751 mmHg 68%
17:00 +9°C° 0 mm 2 mps 751 mmHg 73%
18:00 +8°C° 0 mm 2 mps 751 mmHg 75%
19:00 +8°C° 0 mm 3 mps 751 mmHg 77%
20:00 +7°C° 0 mm 3 mps 751 mmHg 79%
21:00 +7°C° 0 mm 3 mps 751 mmHg 81%
22:00 +5°C° 0 mm 3 mps 751 mmHg 82%
23:00 +5°C° 0 mm 3 mps 751 mmHg 83%
Show more